Location: Napier
(39.4830°S, 176.9170°E)
Time: 02:41:51
(UTC+13:00)

Cosmos 1862 Rocket - Pass Details

Date: 24 January 2019
Orbit: 603 x 634 km, 82.5° (Epoch: 13 October)

Event Time Altitude Azimuth Distance (km) Brightness Sun altitude
Exits shadow 23:23:18 49° 129° (SE) 809 4.1 -24.8°
Drops below altitude 10° 23:26:53 10° 164° (SSE) 2,009 6.7 -25.2°
Sets 23:29:08 0° 168° (SSE) 2,918 7.7 -25.4°
